Location: Brabourne
(51.1333°N, 1.0000°E)
Time: 19:26:58
(UTC+00:00)

Cosmos 1825 Rocket - Pass Details

Date: 20 October 2021
Orbit: 604 x 631 km, 82.5° (Epoch: 03 December)

Event Time Altitude Azimuth Distance (km) Brightness Sun altitude
Rises 20:14:35 0° 342° (NNW) 2,884 7.5 -31.8°
Reaches altitude 10° 20:16:58 10° 333° (NNW) 1,971 6.7 -32.2°
Enters shadow 20:19:28 27° 306° (NW) 1,191 5.5 -32.5°
